Simultaneous Nadir Overpasses (SNOs) Predictions

Prediction of SNOs between GOES-17 and NOAA-21 Satellite Orbit:

Table of predicted SNOs for the next 14.0 days since TLE Epoch: 9/27/2024
Index Date Time (GOES-17) GOES-17 Lat,Lon NOAA-21 Lat,Lon Distance(km) Time Diff (sec)
1 09/27/2024 20:40:19 0.02,-104.70 -0.88,-108.83 470.26 80
2 09/28/2024 20:24:15 0.01,-104.71 0.08,-104.30 46.06 80
3 10/01/2024 08:27:23 -0.01,-104.70 0.08,-105.05 39.68 80
4 10/02/2024 08:06:01 -0.00,-104.70 -0.95,-100.53 476.46 80
5 10/03/2024 20:27:59 -0.00,-104.72 -0.27,-105.83 126.79 80
6 10/04/2024 20:11:57 -0.01,-104.73 0.77,-101.31 389.83 80
7 10/06/2024 08:33:46 0.02,-104.72 0.45,-106.57 211.37 80
8 10/07/2024 08:12:23 0.02,-104.72 -0.60,-102.05 304.65 80
9 10/08/2024 20:34:22 -0.03,-104.72 -0.61,-107.36 299.81 80
10 10/09/2024 20:18:18 -0.03,-104.72 0.39,-102.83 216.30 80
11 10/11/2024 08:40:08 0.03,-104.72 0.81,-108.09 384.82 80
